Albuquerque Double Eagle, NM

6:56 AM MDT on September 24, 2017 (GMT -0600)
Double Eagle Ii

Weather History for KAEG - March, 2013

Change the Weather History Date:

Saturday, March 16, 2013

  Actual Average (KABQ) Record (KABQ)
Temperature  
Mean Temperature 54 °F -  
Max Temperature 68 °F 62 °F 78 °F (2011)
Min Temperature 39 °F 32 °F 12 °F (1913)
Degree Days  
Heating Degree Days 12    
Growing Degree Days 4 (Base 50)    
Moisture  
Dew Point 16 °F    
Average Humidity 28    
Maximum Humidity 57    
Minimum Humidity 13    
Precipitation  
Precipitation 0.00 in - - ()
Sea Level Pressure  
Sea Level Pressure 29.98 in    
Wind  
Wind Speed 12 mph (West)    
Max Wind Speed 30 mph    
Max Gust Speed 38 mph    
Visibility 10 miles    
Events      
Averages and records for this station are not official NWS values.
T = Trace of Precipitation, MM = Missing Value Source: NWS Daily Summary

Daily Weather History Graph

Daily Weather History Graph

Search for Another Location

Airport or City:

Trip Planner

Search our weather history database for the weather conditions in past years. The results will help you decide how hot, cold, wet, or windy it might be!

Date:

Astronomy

Mar. 16, 2013 Rise Set
Actual Time 7:15 AM MDT 7:15 PM MDT
Civil Twilight 6:50 AM MDT 7:41 PM MDT
Nautical Twilight 6:21 AM MDT 8:10 PM MDT
Astronomical Twilight 5:51 AM MDT 8:40 PM MDT
Moon 9:59 AM MDT (3/16) No Moon Set
Length of Visible Light 12h 50m
Length of Day
11h 59m
Waxing Crescent, 23% of the Moon is Illuminated
Mar 16
Waxing Crescent
Mar 19
First Quarter
Mar 27
Full
Apr 2
Last Quarter
Apr 10
New

Hourly Weather History & Observations

Time (MDT) Temp. Windchill Dew Point Humidity Pressure Visibility Wind Dir Wind Speed Gust Speed Precip Events Conditions
12:15 AM 50.0 °F - 5.0 °F 16% 30.02 in 10.0 mi West 13.8 mph - N/A   Clear
12:35 AM 48.2 °F - 5.0 °F 17% 30.02 in 10.0 mi West 12.7 mph - N/A   Clear
12:55 AM 50.0 °F - 6.8 °F 17% 30.02 in 10.0 mi West 11.5 mph - N/A   Clear
1:15 AM 50.0 °F - 6.8 °F 17% 30.02 in 10.0 mi WNW 13.8 mph - N/A   Clear
1:35 AM 48.2 °F - 6.8 °F 19% 30.01 in 10.0 mi WNW 10.4 mph - N/A   Clear
1:55 AM 50.0 °F - 8.6 °F 19% 30.01 in 10.0 mi WNW 11.5 mph - N/A   Clear
2:15 AM 50.0 °F - 10.4 °F 20% 30.01 in 10.0 mi West 10.4 mph - N/A   Clear
2:35 AM 48.2 °F - 10.4 °F 22% 30.01 in 10.0 mi WNW 13.8 mph - N/A   Clear
2:55 AM 50.0 °F - 14.0 °F 24% 30.00 in 10.0 mi WNW 13.8 mph - N/A   Clear
3:15 AM 51.8 °F - 14.0 °F 22% 30.00 in 10.0 mi West 13.8 mph - N/A   Clear
3:35 AM 50.0 °F - 14.0 °F 24% 30.00 in 10.0 mi West 11.5 mph - N/A   Clear
3:55 AM 46.4 °F 41.1 °F 14.0 °F 27% 30.00 in 10.0 mi West 11.5 mph - N/A   Clear
4:15 AM 44.6 °F 39.7 °F 10.4 °F 25% 29.99 in 10.0 mi West 9.2 mph - N/A   Clear
4:35 AM 41.0 °F 39.0 °F 10.4 °F 29% 29.99 in 10.0 mi SW 3.5 mph - N/A   Clear
4:55 AM 46.4 °F 43.5 °F 12.2 °F 25% 29.99 in 10.0 mi South 5.8 mph - N/A   Clear
5:15 AM 44.6 °F 42.2 °F 10.4 °F 25% 29.99 in 10.0 mi South 4.6 mph - N/A   Clear
5:35 AM 39.2 °F 37.0 °F 10.4 °F 31% 29.99 in 10.0 mi North 3.5 mph - N/A   Clear
5:50 AM 41.0 °F - 10.4 °F 29% 29.99 in 10.0 mi Calm Calm - N/A   Clear
6:50 AM 41.0 °F 39.0 °F 8.6 °F 26% 29.99 in 10.0 mi NNE 3.5 mph - N/A   Scattered Clouds
7:50 AM 39.2 °F 37.0 °F 10.4 °F 31% 29.99 in 10.0 mi South 3.5 mph - N/A   Mostly Cloudy
8:50 AM 53.6 °F - 17.6 °F 24% 29.99 in 10.0 mi SSW 5.8 mph - N/A   Mostly Cloudy
9:50 AM 55.4 °F - 17.6 °F 23% 30.00 in 10.0 mi WSW 6.9 mph - N/A   Mostly Cloudy
10:50 AM 59.0 °F - 17.6 °F 20% 30.00 in 10.0 mi SW 6.9 mph - N/A   Mostly Cloudy
11:50 AM 60.8 °F - 19.4 °F 20% 30.00 in 10.0 mi SSW 5.8 mph - N/A   Mostly Cloudy
12:50 PM 64.4 °F - 19.4 °F 18% 29.97 in 10.0 mi SSW 9.2 mph 18.4 mph N/A   Mostly Cloudy
1:50 PM 66.2 °F - 19.4 °F 17% 29.93 in 10.0 mi SSW 13.8 mph - N/A   Mostly Cloudy
2:50 PM 66.2 °F - 17.6 °F 15% 29.89 in 10.0 mi SW 17.3 mph - N/A   Overcast
4:50 PM 68.0 °F - 48.2 °F 49% 29.85 in 10.0 mi West 24.2 mph - N/A   Scattered Clouds
5:50 PM 68.0 °F - 15.8 °F 13% 29.83 in 10.0 mi West 29.9 mph - N/A   Scattered Clouds
10:15 PM 53.6 °F - 26.6 °F 35% 29.91 in 10.0 mi NNW 21.9 mph 28.8 mph N/A   Partly Cloudy
10:35 PM 48.2 °F - 32.0 °F 54% 29.94 in 10.0 mi NNW 25.3 mph 38.0 mph N/A   Clear
10:55 PM 46.4 °F 38.7 °F 32.0 °F 57% 29.94 in 10.0 mi NNW 20.7 mph 33.4 mph N/A   Clear
11:15 PM 46.4 °F 39.0 °F 30.2 °F 53% 29.95 in 10.0 mi NNW 19.6 mph 24.2 mph N/A   Clear
11:35 PM 46.4 °F 40.4 °F 30.2 °F 53% 29.95 in 10.0 mi NNW 13.8 mph 25.3 mph N/A   Clear
11:55 PM 46.4 °F 41.5 °F 30.2 °F 53% 29.94 in 10.0 mi NNW 10.4 mph - N/A   Clear